Find Starlink 30984

NORAD ID: 58480 Int'l Des: 2023-186 Owner: SPXS Country: US Constellation: starlink operational
LEOCIRCULAR

現在のビュー

3D地球を読み込み中...

About Starlink 30984

Starlink 30984 (NORAD 58480) is a starlink constellation satellite (v2 mini) launched Dec 3, 2023 by SPXS of US. It operates in LEO, CIRCULAR orbit with a mass of 730.00 kg.

次回通過

Passes for default location (London). Set your location on the main map for personalized predictions.

高度履歴

Loading altitude history...

軌道要素

1 58480U 23186H 26262.71220434 -.00000093 00000-0 61516-5 0 9993
2 58480 43.0044 47.5461 0000979 275.4852 84.5888 15.27576162155573
Epoch: Sep 19, 2026 • Age: 41 hours

現在のステータス

高度 485.0 km
遠地点 / 近地点 N/A
速度 7.63 km/s
衛星直下点 34.25°N, 14.39°E
打ち上げ日 Dec 3, 2023
運用期間 2.8 years
タイプ internet

技術仕様

分類 Payload
質量 730.00 kg
乾燥質量 700.00 kg
長さ 0.30 m
スパン 29.00 m
形状 ? Box + pan
製造者 SPXS
バスタイプ Starlink V2M
フェーズステータス In Orbit
所有者/国 SPXS/US

Most Searched